User: anonymous   Login
Location: Unspecified
(0.0000°N, 0.0000°E)
Time: 08:25:30
(UTC+00:00)
Language:

AO-7 - Orbit

View from above orbital plane
View from above orbital plane
View from above satellite
View from above satellite

Ground track
Ground track

The orbit data is extracted from the following two-line orbital elements,

1  7530U 74089B   19287.89085087 -.00000045  00000-0 -31359-5 0  9992
2  7530 101.7602 254.4022 0012386 117.7350 298.1850 12.53640329 55331
Epoch (UTC): 14 October 2019 21:22:49
Eccentricity: 0.0012386
inclination: 101.7602°
perigee height: 1439 km
apogee height: 1459 km
right ascension of ascending node: 254.4022°
argument of perigee: 117.7350°
revolutions per day: 12.53640329
mean anomaly at epoch: 298.1850°
orbit number at epoch: 5533

The dashed part of the orbit path shows where the satellite is in the earth's shadow,  

DLR